Weather History for KACY - February, 2013

Change the Weather History Date:

Monday, February 4, 2013

  Actual Average Record
Temperature  
Mean Temperature 26 °F 34 °F  
Max Temperature 30 °F 42 °F 68 °F (1991)
Min Temperature 21 °F 25 °F -3 °F (1996)
Degree Days  
Heating Degree Days 39 31  
Month to date heating degree days 157 126  
Since 1 July heating degree days 2717 2887  
Cooling Degree Days 0 0  
Month to date cooling degree days 0 0  
Year to date cooling degree days 0 0  
Moisture  
Dew Point 14 °F    
Average Humidity 59    
Maximum Humidity 78    
Minimum Humidity 39    
Precipitation  
Precipitation T in 0.10 in 1.47 in (1932)
Month to date precipitation 0.17 0.39  
Year to date precipitation 2.47 3.61  
Snow  
Snow 0.20 in 0.20 in 4.00 in (1948)
Month to date snowfall 3.3 1.0  
Since 1 July snowfall 8.4 9.4  
Snow Depth T in    
Sea Level Pressure  
Sea Level Pressure 29.98 in    
Wind  
Wind Speed 11 mph (West)    
Max Wind Speed 24 mph    
Max Gust Speed 34 mph    
Visibility 9 miles    
Events Snow    
T = Trace of Precipitation, MM = Missing Value Source: NWS Daily Summary

Daily Weather History Graph

Daily Weather History Graph

Search for Another Location

Airport or City:

Trip Planner

Search our weather history database for the weather conditions in past years. The results will help you decide how hot, cold, wet, or windy it might be!

Date:

Astronomy

Feb. 04, 2013 Rise Set
Actual Time 7:02 AM EST 5:22 PM EST
Civil Twilight 6:34 AM EST 5:50 PM EST
Nautical Twilight 6:02 AM EST 6:22 PM EST
Astronomical Twilight 5:30 AM EST 6:54 PM EST
Moon 1:35 AM EST (2/4) 11:44 AM EST (2/4)
Length of Visible Light 11h 16m
Length of Day
10h 19m
Last Quarter, 37% of the Moon is Illuminated
Feb 4
Last Quarter
Feb 10
New
Feb 17
First Quarter
Feb 25
Full
Mar 4
Last Quarter

Hourly Weather History & Observations

Time (EST) Temp. Windchill Dew Point Humidity Pressure Visibility Wind Dir Wind Speed Gust Speed Precip Events Conditions
12:08 AM 28.9 °F 20.4 °F 24.1 °F 82% 29.87 in 1.8 mi West 9.2 mph - 0.00 in Snow Light Snow
12:19 AM 28.9 °F 19.2 °F 24.1 °F 82% 29.87 in 3.0 mi West 11.5 mph 21.9 mph 0.00 in Snow Light Snow
12:31 AM 28.9 °F 19.2 °F 25.0 °F 85% 29.87 in 2.0 mi West 11.5 mph - 0.00 in Snow Light Snow
12:44 AM 28.9 °F 15.4 °F 25.0 °F 85% 29.88 in 4.0 mi WNW 21.9 mph 31.1 mph 0.00 in Snow Light Snow
12:54 AM 28.9 °F 16.5 °F 23.0 °F 78% 29.88 in 8.0 mi WNW 18.4 mph 28.8 mph 0.00 in Snow Light Snow
1:04 AM 28.9 °F 15.1 °F 19.0 °F 67% 29.89 in 10.0 mi WNW 23.0 mph 33.4 mph 0.00 in   Overcast
1:54 AM 26.1 °F 10.7 °F 10.9 °F 53% 29.91 in 10.0 mi WNW 25.3 mph 33.4 mph 0.00 in   Partly Cloudy
2:54 AM 25.0 °F 11.7 °F 8.1 °F 49% 29.93 in 10.0 mi WNW 17.3 mph - N/A   Clear
3:54 AM 24.1 °F 11.0 °F 9.0 °F 53% 29.95 in 10.0 mi WNW 16.1 mph - N/A   Clear
5:54 AM 23.0 °F 11.7 °F 8.1 °F 53% 30.00 in 10.0 mi WNW 11.5 mph - N/A   Clear
6:54 AM 21.9 °F 12.5 °F 8.1 °F 55% 30.02 in 10.0 mi WNW 8.1 mph - N/A   Clear
7:54 AM 23.0 °F 13.9 °F 9.0 °F 55% 30.06 in 10.0 mi WSW 8.1 mph - N/A   Clear
8:54 AM 25.0 °F 11.7 °F 10.0 °F 53% 30.08 in 10.0 mi West 17.3 mph 21.9 mph N/A   Clear
9:54 AM 27.0 °F 13.5 °F 9.0 °F 47% 30.07 in 10.0 mi WNW 19.6 mph 27.6 mph N/A   Clear
10:54 AM 28.0 °F 15.3 °F 7.0 °F 41% 30.07 in 10.0 mi West 18.4 mph 24.2 mph N/A   Clear
11:54 AM 30.0 °F 17.9 °F 9.0 °F 41% 30.04 in 10.0 mi WNW 18.4 mph 23.0 mph N/A   Clear
12:54 PM 28.9 °F 17.7 °F 8.1 °F 41% 30.01 in 10.0 mi West 15.0 mph 28.8 mph N/A   Clear
1:54 PM 30.0 °F 19.1 °F 9.0 °F 41% 29.99 in 10.0 mi WNW 15.0 mph 23.0 mph N/A   Clear
2:54 PM 30.0 °F 19.1 °F 9.0 °F 41% 29.99 in 10.0 mi West 15.0 mph - N/A   Clear
3:54 PM 30.0 °F 20.5 °F 10.0 °F 43% 30.00 in 10.0 mi West 11.5 mph 19.6 mph N/A   Clear
4:54 PM 30.0 °F 21.1 °F 10.9 °F 45% 30.01 in 10.0 mi West 10.4 mph - N/A   Clear
5:54 PM 28.9 °F 22.8 °F 12.0 °F 49% 30.01 in 10.0 mi SW 5.8 mph - N/A   Clear
6:54 PM 28.0 °F - 12.9 °F 53% 30.02 in 10.0 mi Calm Calm - N/A   Clear
7:54 PM 27.0 °F - 14.0 °F 58% 30.01 in 10.0 mi Calm Calm - N/A   Scattered Clouds
8:54 PM 28.0 °F 22.8 °F 15.1 °F 58% 30.01 in 10.0 mi South 4.6 mph - N/A   Mostly Cloudy
9:54 PM 28.0 °F - 17.1 °F 63% 29.99 in 10.0 mi Calm Calm - N/A   Overcast
10:54 PM 30.0 °F - 18.0 °F 61% 29.99 in 10.0 mi Calm Calm - N/A   Overcast
11:54 PM 28.9 °F - 19.0 °F 67% 29.98 in 10.0 mi Calm Calm - N/A   Overcast